THA847 KMCO-EBBR

Flight info

Callsign THA847
Flight time N/A
Altitude 30000
Route JEEMY4 PAINN SHRKS BERTT GURGE RAYVO Q87 NOWAE FAK BOOYA Q34 RBV Q22 LLUND BIZEX Q133 CAM BEEHS JIGZY TAFFY N693A NEEKO 5350N 5440N 5430N 5420N DOGAL BEXET BOFUM Q37 MALUD UL975 WAL M16 DOLAS NAVPI ALFEN ORCAV Z310 BATAK Z310 WOODY
Aircraft B77W/H-VGDW/C

Departure

Time 2026-04-25 12:05
Airport Orlando International Airport (KMCO)

Arrival

Time N/A
Airport Brussels Airport (EBBR)
Time Latitude Longitude Altitude Speed Heading
2026-04-25 10:14 28.41240 -81.31632 99 ft 0 kts 180°
2026-04-25 11:32 28.41241 -81.31632 99 ft 1 kts 180°
2026-04-25 11:32 28.41258 -81.31632 99 ft 3 kts 180°
2026-04-25 11:33 28.41278 -81.31632 99 ft 3 kts 179°
2026-04-25 11:33 28.41296 -81.31633 101 ft 3 kts 183°
2026-04-25 11:33 28.41314 -81.31630 99 ft 3 kts 202°
2026-04-25 11:33 28.41328 -81.31621 99 ft 3 kts 227°
2026-04-25 11:34 28.41338 -81.31605 99 ft 3 kts 248°
2026-04-25 11:34 28.41345 -81.31584 99 ft 3 kts 254°
2026-04-25 11:34 28.41348 -81.31572 99 ft 0 kts 252°
2026-04-25 11:36 28.41347 -81.31574 99 ft 3 kts 252°
2026-04-25 11:37 28.41331 -81.31670 99 ft 22 kts 265°
2026-04-25 11:37 28.41330 -81.31739 99 ft 0 kts 270°
2026-04-25 11:38 28.41330 -81.31766 101 ft 9 kts 269°
2026-04-25 11:39 28.41330 -81.31862 103 ft 13 kts 273°
2026-04-25 11:39 28.41382 -81.31914 106 ft 10 kts 356°
2026-04-25 11:39 28.41431 -81.31914 104 ft 11 kts
2026-04-25 11:39 28.41446 -81.31913 102 ft 12 kts
2026-04-25 11:40 28.41535 -81.31893 102 ft 15 kts 17°
2026-04-25 11:40 28.41658 -81.31874 102 ft 21 kts 359°
2026-04-25 11:40 28.41823 -81.31874 103 ft 26 kts
2026-04-25 11:40 28.42009 -81.31879 105 ft 27 kts 359°
2026-04-25 11:41 28.42194 -81.31854 106 ft 27 kts 14°
2026-04-25 11:41 28.42379 -81.31832 106 ft 27 kts
2026-04-25 11:41 28.42565 -81.31836 106 ft 27 kts
2026-04-25 11:41 28.42751 -81.31836 106 ft 27 kts 359°
2026-04-25 11:42 28.42938 -81.31838 104 ft 27 kts 359°
2026-04-25 11:42 28.43124 -81.31842 105 ft 27 kts 359°
2026-04-25 11:42 28.43308 -81.31844 103 ft 27 kts
2026-04-25 11:42 28.43494 -81.31843 103 ft 27 kts
2026-04-25 11:43 28.43680 -81.31846 104 ft 27 kts 359°
2026-04-25 11:43 28.43867 -81.31848 106 ft 27 kts 358°
2026-04-25 11:43 28.44045 -81.31889 105 ft 26 kts 350°
2026-04-25 11:43 28.44226 -81.31902 105 ft 26 kts 360°
2026-04-25 11:44 28.44407 -81.31903 105 ft 26 kts 360°
2026-04-25 11:44 28.44585 -81.31905 102 ft 23 kts 359°
2026-04-25 11:44 28.44603 -81.31905 102 ft 0 kts 359°
2026-04-25 11:49 28.44617 -81.31905 102 ft 3 kts 359°
2026-04-25 11:50 28.44639 -81.31906 102 ft 2 kts 359°
2026-04-25 11:50 28.44640 -81.31906 102 ft 0 kts 359°
2026-04-25 11:52 28.44682 -81.31907 102 ft 9 kts 359°
2026-04-25 11:53 28.44743 -81.31908 104 ft 9 kts 359°
2026-04-25 11:53 28.44802 -81.31919 104 ft 9 kts 334°
2026-04-25 11:53 28.44824 -81.31980 103 ft 8 kts 273°
2026-04-25 11:53 28.44824 -81.31992 102 ft 0 kts 272°
2026-04-25 11:56 28.44824 -81.32001 102 ft 5 kts 272°
2026-04-25 11:57 28.44825 -81.32059 102 ft 0 kts 269°
2026-04-25 12:02 28.44824 -81.32106 104 ft 15 kts 269°
2026-04-25 12:03 28.44791 -81.32216 104 ft 16 kts 209°
2026-04-25 12:03 28.44737 -81.32230 102 ft 0 kts 182°
2026-04-25 12:04 28.44731 -81.32230 102 ft 1 kts 182°
2026-04-25 12:04 28.44663 -81.32230 104 ft 24 kts 179°
2026-04-25 12:05 28.44213 -81.32224 107 ft 107 kts 179°
2026-04-25 12:05 28.43181 -81.32210 103 ft 188 kts 179°
2026-04-25 12:05 28.41757 -81.32178 722 ft 199 kts 178°
2026-04-25 12:05 28.40360 -81.32142 1922 ft 204 kts 182°
2026-04-25 12:06 28.38915 -81.32604 2268 ft 237 kts 209°
2026-04-25 12:06 28.37414 -81.33551 2646 ft 254 kts 207°
2026-04-25 12:06 28.35823 -81.34499 3251 ft 261 kts 207°
2026-04-25 12:06 28.34261 -81.35571 3844 ft 265 kts 223°
2026-04-25 12:07 28.33015 -81.37143 4340 ft 271 kts 234°
2026-04-25 12:07 28.32232 -81.39097 4903 ft 276 kts 258°
2026-04-25 12:07 28.31946 -81.41254 5566 ft 279 kts 262°
2026-04-25 12:07 28.31705 -81.43448 6264 ft 280 kts 263°
2026-04-25 12:08 28.31466 -81.45651 6877 ft 284 kts 263°
2026-04-25 12:08 28.31223 -81.47891 7021 ft 286 kts 263°
2026-04-25 12:08 28.30988 -81.50128 7014 ft 283 kts 266°
2026-04-25 12:08 28.31219 -81.52314 7025 ft 282 kts 292°
2026-04-25 12:09 28.32295 -81.54178 7026 ft 284 kts 316°
2026-04-25 12:09 28.33929 -81.55382 7071 ft 285 kts 343°
2026-04-25 12:09 28.35869 -81.55820 7605 ft 288 kts 352°
2026-04-25 12:09 28.37190 -81.56018 8037 ft 288 kts 353°
2026-04-25 12:10 28.37936 -81.56122 8334 ft 287 kts 353°
2026-04-25 12:10 28.39919 -81.56385 9032 ft 287 kts 353°
2026-04-25 12:10 28.41919 -81.56644 9640 ft 290 kts 353°
2026-04-25 12:10 28.43930 -81.56896 10276 ft 292 kts 353°
2026-04-25 12:11 28.45992 -81.57131 10567 ft 306 kts 357°
2026-04-25 12:11 28.48184 -81.56907 10727 ft 327 kts 10°
2026-04-25 12:11 28.50434 -81.56282 10895 ft 348 kts 14°
2026-04-25 12:11 28.52822 -81.55481 11100 ft 367 kts 15°
2026-04-25 12:12 28.55300 -81.54616 11577 ft 377 kts 15°
2026-04-25 12:12 28.57004 -81.54023 11967 ft 381 kts 15°
2026-04-25 12:12 28.60384 -81.52864 12919 ft 384 kts 14°
2026-04-25 12:12 28.62958 -81.51997 13618 ft 387 kts 14°
2026-04-25 12:13 28.65562 -81.51129 14271 ft 391 kts 14°
2026-04-25 12:13 28.68192 -81.50258 14908 ft 395 kts 14°
2026-04-25 12:13 28.70851 -81.49379 15548 ft 399 kts 14°
2026-04-25 12:13 28.73526 -81.48494 16200 ft 402 kts 14°
2026-04-25 12:14 28.76200 -81.47610 16812 ft 406 kts 13°
2026-04-25 12:14 28.78933 -81.46705 17398 ft 409 kts 13°
2026-04-25 12:14 28.81679 -81.45794 17952 ft 413 kts 13°
2026-04-25 12:14 28.84455 -81.44874 18521 ft 417 kts 13°
2026-04-25 12:15 28.87259 -81.43945 19100 ft 420 kts 13°
2026-04-25 12:15 28.90072 -81.43013 19652 ft 423 kts 13°
2026-04-25 12:15 28.92890 -81.42171 20130 ft 426 kts
2026-04-25 12:15 28.95839 -81.41724 20645 ft 427 kts
2026-04-25 12:16 28.98821 -81.41636 21170 ft 428 kts 355°
2026-04-25 12:16 29.01796 -81.41930 21666 ft 429 kts 351°
2026-04-25 12:16 29.03775 -81.42185 21987 ft 432 kts 351°
2026-04-25 12:16 29.07796 -81.42677 22596 ft 436 kts 352°
2026-04-25 12:17 29.10831 -81.43018 23036 ft 440 kts 353°
2026-04-25 12:17 29.12859 -81.43223 23316 ft 442 kts 353°
2026-04-25 12:17 29.15941 -81.43513 23743 ft 445 kts 353°
2026-04-25 12:17 29.19042 -81.43799 24167 ft 448 kts 353°
2026-04-25 12:18 29.22160 -81.44085 24579 ft 451 kts 353°
2026-04-25 12:18 29.25301 -81.44376 25018 ft 453 kts 353°
2026-04-25 12:18 29.28451 -81.44671 25425 ft 455 kts 353°
2026-04-25 12:18 29.31614 -81.44970 25813 ft 458 kts 353°
2026-04-25 12:19 29.36921 -81.45477 26447 ft 462 kts 354°
2026-04-25 12:19 29.41170 -81.45882 26970 ft 464 kts 354°
2026-04-25 12:19 29.44397 -81.46190 27338 ft 465 kts 354°
2026-04-25 12:20 29.47636 -81.46501 27679 ft 468 kts 354°
2026-04-25 12:20 29.50893 -81.46812 28009 ft 470 kts 354°
2026-04-25 12:20 29.54160 -81.47124 28334 ft 472 kts 354°
2026-04-25 12:20 29.57437 -81.47437 28659 ft 474 kts 354°
2026-04-25 12:21 29.60730 -81.47746 28973 ft 475 kts 354°
2026-04-25 12:21 29.64035 -81.48046 29248 ft 477 kts 355°
2026-04-25 12:21 29.67311 -81.48339 29515 ft 478 kts 355°
2026-04-25 12:21 29.70629 -81.48636 29816 ft 478 kts 355°
2026-04-25 12:22 29.73955 -81.48935 30186 ft 477 kts 355°
2026-04-25 12:22 29.77261 -81.49236 30568 ft 475 kts 355°
2026-04-25 12:22 29.80558 -81.49537 30874 ft 475 kts 355°
2026-04-25 12:23 29.87163 -81.50183 30960 ft 476 kts 352°
2026-04-25 12:23 29.93614 -81.51833 30977 ft 474 kts 342°
2026-04-25 12:24 29.99908 -81.54144 30976 ft 474 kts 342°
2026-04-25 12:24 30.06198 -81.56427 30984 ft 474 kts 342°
2026-04-25 12:25 30.11437 -81.58307 30980 ft 474 kts 342°
2026-04-25 12:25 30.15711 -81.59835 30985 ft 474 kts 342°
2026-04-25 12:26 30.22017 -81.62103 30981 ft 474 kts 342°
2026-04-25 12:26 30.28326 -81.64362 30983 ft 474 kts 342°
2026-04-25 12:27 30.34633 -81.66623 30978 ft 474 kts 342°
2026-04-25 12:27 30.40899 -81.68889 30976 ft 474 kts 342°
2026-04-25 12:28 30.47211 -81.71162 30971 ft 474 kts 342°
2026-04-25 12:28 30.53511 -81.73427 30962 ft 473 kts 342°
2026-04-25 12:29 30.59837 -81.75497 30962 ft 472 kts 349°
2026-04-25 12:29 30.66401 -81.76092 30974 ft 474 kts
2026-04-25 12:30 30.72947 -81.75375 30974 ft 475 kts
2026-04-25 12:30 30.79517 -81.74485 30961 ft 474 kts
2026-04-25 12:31 30.86067 -81.73640 30963 ft 474 kts
2026-04-25 12:31 30.92627 -81.72817 30968 ft 474 kts
2026-04-25 12:32 30.99184 -81.71999 30976 ft 474 kts
2026-04-25 12:32 31.05736 -81.71178 30982 ft 473 kts
2026-04-25 12:33 31.12278 -81.70357 30972 ft 473 kts
2026-04-25 12:33 31.18765 -81.69122 30972 ft 473 kts 14°
2026-04-25 12:34 31.25048 -81.66843 30978 ft 474 kts 16°
2026-04-25 12:34 31.31328 -81.64497 30971 ft 473 kts 16°
2026-04-25 12:35 31.37600 -81.62184 30973 ft 472 kts 16°
2026-04-25 12:35 31.43831 -81.59906 30971 ft 472 kts 16°
2026-04-25 12:36 31.50092 -81.57614 30973 ft 471 kts 16°
2026-04-25 12:36 31.56358 -81.55320 30973 ft 471 kts 16°
2026-04-25 12:37 31.62613 -81.53026 30963 ft 471 kts 16°
2026-04-25 12:37 31.68863 -81.50729 30953 ft 470 kts 16°
2026-04-25 12:38 31.75110 -81.48428 30956 ft 471 kts 16°
2026-04-25 12:38 31.81363 -81.46122 30941 ft 471 kts 16°
2026-04-25 12:39 31.87622 -81.43812 30943 ft 471 kts 16°
2026-04-25 12:39 31.93827 -81.41517 30939 ft 471 kts 16°
2026-04-25 12:40 32.00083 -81.39202 30941 ft 471 kts 16°
2026-04-25 12:40 32.03321 -81.38002 30949 ft 471 kts 16°
2026-04-25 12:41 32.09587 -81.35679 30939 ft 472 kts 16°
2026-04-25 12:41 32.15853 -81.33351 30946 ft 472 kts 16°
2026-04-25 12:42 32.22128 -81.31014 30958 ft 473 kts 16°
2026-04-25 12:42 32.28365 -81.28689 30947 ft 473 kts 16°
2026-04-25 12:43 32.34656 -81.26342 30948 ft 474 kts 16°
2026-04-25 12:43 32.44088 -81.22784 30941 ft 475 kts 19°
2026-04-25 12:44 32.50029 -81.19300 30956 ft 478 kts 30°
2026-04-25 12:45 32.57934 -81.12098 30940 ft 481 kts 38°
2026-04-25 12:45 32.65676 -81.04450 30936 ft 482 kts 38°
2026-04-25 12:46 32.70857 -80.99383 30940 ft 483 kts 38°
2026-04-25 12:46 32.76060 -80.94308 30938 ft 483 kts 38°
2026-04-25 12:47 32.81262 -80.89232 30947 ft 484 kts 38°
2026-04-25 12:47 32.86429 -80.84179 30944 ft 484 kts 38°
2026-04-25 12:48 32.91625 -80.79084 30939 ft 484 kts 38°
2026-04-25 12:48 32.96832 -80.73972 30959 ft 484 kts 38°
2026-04-25 12:49 33.02030 -80.68863 30952 ft 485 kts 38°
2026-04-25 12:49 33.07236 -80.63738 30953 ft 485 kts 38°
2026-04-25 12:50 33.12437 -80.58608 30948 ft 485 kts 38°
2026-04-25 12:50 33.17644 -80.53464 30946 ft 485 kts 38°
2026-04-25 12:51 33.22850 -80.48316 30936 ft 486 kts 38°
2026-04-25 12:51 33.28056 -80.43155 30936 ft 486 kts 38°
2026-04-25 12:52 33.33222 -80.38026 30933 ft 486 kts 39°
2026-04-25 12:52 33.38427 -80.32852 30939 ft 486 kts 39°
2026-04-25 12:53 33.43623 -80.27675 30934 ft 486 kts 39°
2026-04-25 12:53 33.48833 -80.22482 30935 ft 486 kts 39°
2026-04-25 12:54 33.54033 -80.17288 30934 ft 487 kts 39°
2026-04-25 12:54 33.59230 -80.12083 30941 ft 487 kts 39°
2026-04-25 12:55 33.62697 -80.08640 30932 ft 487 kts 37°
2026-04-25 12:55 33.67475 -80.04834 30935 ft 486 kts 27°
2026-04-25 12:56 33.73529 -80.01192 30941 ft 486 kts 26°
2026-04-25 12:56 33.79599 -79.97574 30949 ft 487 kts 26°
2026-04-25 12:57 33.85656 -79.93901 30938 ft 487 kts 27°
2026-04-25 12:57 33.91703 -79.90210 30948 ft 487 kts 27°
2026-04-25 12:58 33.97708 -79.86538 30936 ft 487 kts 27°
2026-04-25 12:58 34.03761 -79.82830 30933 ft 487 kts 27°
2026-04-25 12:59 34.09775 -79.79139 30940 ft 487 kts 27°
2026-04-25 12:59 34.14810 -79.76049 30937 ft 487 kts 27°
2026-04-25 13:00 34.19834 -79.72956 30935 ft 487 kts 27°
2026-04-25 13:00 34.27908 -79.67967 30934 ft 487 kts 27°
2026-04-25 13:01 34.33909 -79.64251 30936 ft 487 kts 27°
2026-04-25 13:01 34.39960 -79.60502 30933 ft 488 kts 27°
2026-04-25 13:02 34.46000 -79.56755 30933 ft 487 kts 27°
2026-04-25 13:02 34.51025 -79.53635 30938 ft 488 kts 27°
2026-04-25 13:03 34.57061 -79.49850 30936 ft 488 kts 28°
2026-04-25 13:03 34.62991 -79.45825 30932 ft 488 kts 29°
2026-04-25 13:04 34.68921 -79.41791 30931 ft 488 kts 28°
2026-04-25 13:04 34.74867 -79.37782 30931 ft 488 kts 28°
2026-04-25 13:05 34.80777 -79.33781 30936 ft 489 kts 28°
2026-04-25 13:05 34.86722 -79.29750 30934 ft 489 kts 28°
2026-04-25 13:06 34.92665 -79.25708 30935 ft 489 kts 28°
2026-04-25 13:06 34.98614 -79.21660 30924 ft 490 kts 28°
2026-04-25 13:07 35.04527 -79.17631 30918 ft 490 kts 28°
2026-04-25 13:07 35.10471 -79.13570 30915 ft 489 kts 28°
2026-04-25 13:08 35.16415 -79.09504 30907 ft 489 kts 28°
2026-04-25 13:08 35.22356 -79.05432 30910 ft 489 kts 28°
2026-04-25 13:09 35.28298 -79.01353 30908 ft 489 kts 28°
2026-04-25 13:09 35.34236 -78.97269 30911 ft 489 kts 28°
2026-04-25 13:10 35.40170 -78.93185 30915 ft 490 kts 28°
2026-04-25 13:10 35.43244 -78.91068 30918 ft 489 kts 28°
2026-04-25 13:11 35.49188 -78.86957 30914 ft 489 kts 28°
2026-04-25 13:11 35.55124 -78.82841 30918 ft 489 kts 28°
2026-04-25 13:12 35.61062 -78.78722 30919 ft 489 kts 28°
2026-04-25 13:12 35.65990 -78.75304 30917 ft 489 kts 28°
2026-04-25 13:13 35.72876 -78.70528 30919 ft 489 kts 28°
2026-04-25 13:13 35.78804 -78.66410 30920 ft 489 kts 28°
2026-04-25 13:14 35.84728 -78.62288 30916 ft 489 kts 28°
2026-04-25 13:14 35.90643 -78.58164 30918 ft 488 kts 28°
2026-04-25 13:15 35.96560 -78.54027 30918 ft 489 kts 28°
2026-04-25 13:15 36.02470 -78.49887 30915 ft 489 kts 28°
2026-04-25 13:16 36.08401 -78.45730 30917 ft 490 kts 28°
2026-04-25 13:16 36.14328 -78.41565 30919 ft 489 kts 28°
2026-04-25 13:17 36.20205 -78.37427 30918 ft 489 kts 28°
2026-04-25 13:17 36.26161 -78.33231 30909 ft 489 kts 28°
2026-04-25 13:18 36.32036 -78.29079 30905 ft 489 kts 28°
2026-04-25 13:18 36.38056 -78.25125 30915 ft 488 kts 21°
2026-04-25 13:19 36.44467 -78.22463 30916 ft 485 kts 14°
2026-04-25 13:19 36.49879 -78.20569 30912 ft 486 kts 14°
2026-04-25 13:20 36.57435 -78.17891 30916 ft 486 kts 14°
2026-04-25 13:20 36.63947 -78.15537 30923 ft 486 kts 14°
2026-04-25 13:21 36.70444 -78.13171 30938 ft 486 kts 14°
2026-04-25 13:21 36.76946 -78.10797 30933 ft 486 kts 14°
2026-04-25 13:22 36.83444 -78.08423 30926 ft 487 kts 14°
2026-04-25 13:23 36.93166 -78.04868 30900 ft 487 kts 14°
2026-04-25 13:23 36.99670 -78.02485 30903 ft 487 kts 14°
2026-04-25 13:24 37.06180 -78.00094 30896 ft 487 kts 13°
2026-04-25 13:24 37.12679 -77.97698 30890 ft 484 kts 13°
2026-04-25 13:25 37.19129 -77.95318 30895 ft 483 kts 13°
2026-04-25 13:25 37.25557 -77.92948 30896 ft 484 kts 13°
2026-04-25 13:26 37.28422 -77.91889 30898 ft 484 kts 13°
2026-04-25 13:26 37.34895 -77.89493 30904 ft 484 kts 13°
2026-04-25 13:27 37.41373 -77.87089 30911 ft 485 kts 13°
2026-04-25 13:27 37.47842 -77.84684 30919 ft 485 kts 13°
2026-04-25 13:28 37.54290 -77.82151 30914 ft 487 kts 17°
2026-04-25 13:28 37.60563 -77.78885 30922 ft 489 kts 19°
2026-04-25 13:29 37.66794 -77.75547 30929 ft 489 kts 19°
2026-04-25 13:29 37.73067 -77.72218 30926 ft 489 kts 19°
2026-04-25 13:30 37.82476 -77.67252 30925 ft 489 kts 18°
2026-04-25 13:31 37.91905 -77.62271 30933 ft 489 kts 19°
2026-04-25 13:31 37.98180 -77.58945 30933 ft 488 kts 19°
2026-04-25 13:32 38.04450 -77.55618 30937 ft 488 kts 18°
2026-04-25 13:32 38.10681 -77.52304 30934 ft 489 kts 18°
2026-04-25 13:33 38.16953 -77.48960 30936 ft 489 kts 18°
2026-04-25 13:33 38.23221 -77.45617 30936 ft 488 kts 18°
2026-04-25 13:34 38.29492 -77.42258 30932 ft 489 kts 18°
2026-04-25 13:34 38.35759 -77.38891 30940 ft 489 kts 19°
2026-04-25 13:35 38.41605 -77.34320 30956 ft 499 kts 34°
2026-04-25 13:35 38.46531 -77.28063 30965 ft 506 kts 44°
2026-04-25 13:36 38.51129 -77.21255 30966 ft 506 kts 45°
2026-04-25 13:36 38.55753 -77.14455 30960 ft 506 kts 44°
2026-04-25 13:37 38.60412 -77.07695 30957 ft 506 kts 44°
2026-04-25 13:37 38.65039 -77.00993 30950 ft 505 kts 44°
2026-04-25 13:38 38.69686 -76.94243 30963 ft 505 kts 44°
2026-04-25 13:38 38.74328 -76.87472 30964 ft 505 kts 44°
2026-04-25 13:39 38.78968 -76.80694 30964 ft 505 kts 44°
2026-04-25 13:39 38.83562 -76.73965 30963 ft 505 kts 44°
2026-04-25 13:40 38.88191 -76.67168 30973 ft 505 kts 44°
2026-04-25 13:40 38.92818 -76.60365 30985 ft 505 kts 44°
2026-04-25 13:41 38.95215 -76.56833 30989 ft 505 kts 44°
2026-04-25 13:41 38.99830 -76.50016 30991 ft 505 kts 44°
2026-04-25 13:42 39.04438 -76.43204 30989 ft 505 kts 44°
2026-04-25 13:42 39.09017 -76.36415 30993 ft 505 kts 44°
2026-04-25 13:43 39.13618 -76.29577 30995 ft 505 kts 44°
2026-04-25 13:43 39.18212 -76.22738 31004 ft 505 kts 44°
2026-04-25 13:44 39.22813 -76.15886 31010 ft 505 kts 43°
2026-04-25 13:44 39.27414 -76.09020 31007 ft 506 kts 43°
2026-04-25 13:45 39.32021 -76.02151 30997 ft 505 kts 43°
2026-04-25 13:45 39.36604 -75.95263 31012 ft 505 kts 43°
2026-04-25 13:46 39.41191 -75.88368 31014 ft 504 kts 43°
2026-04-25 13:46 39.45736 -75.81542 31021 ft 504 kts 43°
2026-04-25 13:47 39.50319 -75.74647 31014 ft 505 kts 43°
2026-04-25 13:47 39.54893 -75.67735 31026 ft 504 kts 43°
2026-04-25 13:48 39.59457 -75.60826 31035 ft 505 kts 43°
2026-04-25 13:48 39.63999 -75.53938 31040 ft 505 kts 43°
2026-04-25 13:49 39.68381 -75.46779 31040 ft 507 kts 47°
2026-04-25 13:49 39.72514 -75.39340 31039 ft 508 kts 48°
2026-04-25 13:50 39.75949 -75.33125 31043 ft 508 kts 48°
2026-04-25 13:50 39.80087 -75.25689 31048 ft 508 kts 48°
2026-04-25 13:51 39.84224 -75.18261 31070 ft 507 kts 47°
2026-04-25 13:51 39.88370 -75.10806 31048 ft 507 kts 47°
2026-04-25 13:52 39.92495 -75.03366 31056 ft 506 kts 47°
2026-04-25 13:52 39.96614 -74.95922 31070 ft 506 kts 47°
2026-04-25 13:53 40.00609 -74.88339 31057 ft 508 kts 50°
2026-04-25 13:53 40.04475 -74.80619 31058 ft 507 kts 49°
2026-04-25 13:54 40.08330 -74.72962 31075 ft 507 kts 49°
2026-04-25 13:54 40.12225 -74.65286 31064 ft 506 kts 49°
2026-04-25 13:55 40.16125 -74.57584 31063 ft 506 kts 49°
2026-04-25 13:55 40.20246 -74.50209 31077 ft 497 kts 40°
2026-04-25 13:56 40.23389 -74.45992 31087 ft 488 kts 33°
2026-04-25 13:56 40.27828 -74.41248 31096 ft 483 kts 30°
2026-04-25 13:57 40.33079 -74.35737 31082 ft 484 kts 31°
2026-04-25 13:57 40.38308 -74.30171 31095 ft 484 kts 31°
2026-04-25 13:58 40.43523 -74.24571 31105 ft 485 kts 31°
2026-04-25 13:58 40.48735 -74.18966 31110 ft 484 kts 31°
2026-04-25 13:59 40.53761 -74.13557 31108 ft 484 kts 31°
2026-04-25 13:59 40.58973 -74.07936 31110 ft 484 kts 31°
2026-04-25 14:00 40.64188 -74.02307 31113 ft 484 kts 31°
2026-04-25 14:00 40.69390 -73.96680 31117 ft 483 kts 31°
2026-04-25 14:01 40.74529 -73.91104 31114 ft 478 kts 30°
2026-04-25 14:01 40.79686 -73.85508 31109 ft 479 kts 30°
2026-04-25 14:02 40.84894 -73.80189 31097 ft 469 kts 23°
2026-04-25 14:02 40.90569 -73.76209 31110 ft 456 kts 14°
2026-04-25 14:03 40.96495 -73.73351 31116 ft 453 kts 11°
2026-04-25 14:03 41.02392 -73.70592 31110 ft 451 kts 11°
2026-04-25 14:04 41.08327 -73.67765 31110 ft 452 kts 11°
2026-04-25 14:04 41.14243 -73.64926 31112 ft 451 kts 11°
2026-04-25 14:05 41.20114 -73.62097 31111 ft 450 kts 11°
2026-04-25 14:05 41.26017 -73.59308 31120 ft 447 kts
2026-04-25 14:06 41.32017 -73.57541 31122 ft 437 kts 359°
2026-04-25 14:06 41.38053 -73.56732 31126 ft 436 kts 358°
2026-04-25 14:07 41.44085 -73.55957 31127 ft 435 kts 358°
2026-04-25 14:07 41.50105 -73.55160 31134 ft 435 kts 358°
2026-04-25 14:08 41.56149 -73.54341 31125 ft 435 kts 358°
2026-04-25 14:08 41.62136 -73.53524 31118 ft 435 kts 358°
2026-04-25 14:09 41.68162 -73.52705 31121 ft 435 kts 358°
2026-04-25 14:09 41.74198 -73.51876 31114 ft 435 kts 358°
2026-04-25 14:10 41.80228 -73.51049 31116 ft 435 kts 358°
2026-04-25 14:10 41.86265 -73.50224 31107 ft 435 kts 358°
2026-04-25 14:11 41.92291 -73.49395 31098 ft 435 kts 358°
2026-04-25 14:11 41.95436 -73.48960 31115 ft 436 kts 358°
2026-04-25 14:12 42.01467 -73.48130 31107 ft 435 kts 358°
2026-04-25 14:12 42.07474 -73.47299 31094 ft 432 kts 358°
2026-04-25 14:13 42.13419 -73.46476 31103 ft 433 kts 358°
2026-04-25 14:13 42.19414 -73.45648 31089 ft 433 kts 358°
2026-04-25 14:14 42.25406 -73.44816 31095 ft 433 kts 358°
2026-04-25 14:14 42.31405 -73.43981 31094 ft 433 kts 358°
2026-04-25 14:15 42.37401 -73.43140 31089 ft 432 kts 358°
2026-04-25 14:15 42.43383 -73.42305 31092 ft 432 kts 358°
2026-04-25 14:16 42.49334 -73.41473 31073 ft 432 kts 358°
2026-04-25 14:16 42.55304 -73.40636 31093 ft 431 kts 358°
2026-04-25 14:17 42.61275 -73.39796 31092 ft 431 kts 358°
2026-04-25 14:17 42.67243 -73.38956 31087 ft 430 kts 358°
2026-04-25 14:18 42.73198 -73.38118 31094 ft 430 kts 358°
2026-04-25 14:18 42.79154 -73.37278 31100 ft 430 kts 358°
2026-04-25 14:19 42.85098 -73.36432 31100 ft 429 kts 358°
2026-04-25 14:19 42.91036 -73.35589 31086 ft 429 kts 358°
2026-04-25 14:20 42.96966 -73.34747 31096 ft 428 kts 358°
2026-04-25 14:20 43.02857 -73.33976 31102 ft 428 kts 356°
2026-04-25 14:21 43.08788 -73.33378 31093 ft 427 kts 356°
2026-04-25 14:21 43.14710 -73.32794 31105 ft 426 kts 356°
2026-04-25 14:22 43.20632 -73.32192 31102 ft 427 kts 356°
2026-04-25 14:22 43.26552 -73.31577 31105 ft 426 kts 356°
2026-04-25 14:23 43.32433 -73.30958 31216 ft 426 kts 356°
2026-04-25 14:23 43.38362 -73.30338 31359 ft 427 kts 356°
2026-04-25 14:24 43.44291 -73.29717 31504 ft 426 kts 356°
2026-04-25 14:24 43.50213 -73.29093 31647 ft 426 kts 356°
2026-04-25 14:25 43.56121 -73.28468 31801 ft 425 kts 356°
2026-04-25 14:25 43.61992 -73.27847 31935 ft 425 kts 356°
2026-04-25 14:26 43.67887 -73.27222 32086 ft 424 kts 356°
2026-04-25 14:26 43.70966 -73.26897 32175 ft 424 kts 356°
2026-04-25 14:27 43.76841 -73.26273 32310 ft 423 kts 356°
2026-04-25 14:27 43.82712 -73.25648 32461 ft 423 kts 356°
2026-04-25 14:28 43.88579 -73.25026 32606 ft 422 kts 356°
2026-04-25 14:28 43.94399 -73.24404 32757 ft 422 kts 356°
2026-04-25 14:29 44.00235 -73.23081 32861 ft 441 kts 13°
2026-04-25 14:29 44.02992 -73.21032 32968 ft 458 kts 23°
2026-04-25 14:29 44.05531 -73.18217 33021 ft 477 kts 36°
2026-04-25 14:29 44.07589 -73.14496 33126 ft 491 kts 45°
2026-04-25 14:30 44.09504 -73.10541 33093 ft 493 kts 45°
2026-04-25 14:30 44.15144 -72.98726 33114 ft 485 kts 45°
2026-04-25 14:31 44.18945 -72.90972 33115 ft 485 kts 44°
2026-04-25 14:31 44.22749 -72.83273 33131 ft 485 kts 44°
2026-04-25 14:32 44.26570 -72.75515 33135 ft 483 kts 44°
2026-04-25 14:32 44.30370 -72.67785 33142 ft 482 kts 43°
2026-04-25 14:33 44.34176 -72.60049 33171 ft 484 kts 43°
2026-04-25 14:33 44.37317 -72.53608 33146 ft 481 kts 44°
2026-04-25 14:34 44.41695 -72.44598 33140 ft 481 kts 44°
2026-04-25 14:34 44.44847 -72.38103 33144 ft 482 kts 44°
2026-04-25 14:35 44.48610 -72.30336 33142 ft 481 kts 43°
2026-04-25 14:35 44.52335 -72.22629 33142 ft 482 kts 43°
2026-04-25 14:36 44.56094 -72.14826 33123 ft 481 kts 43°
2026-04-25 14:36 44.59834 -72.07039 33146 ft 481 kts 44°
2026-04-25 14:37 44.63573 -71.99234 33148 ft 482 kts 44°
2026-04-25 14:37 44.67311 -71.91410 33144 ft 482 kts 44°
2026-04-25 14:38 44.71039 -71.83588 33152 ft 481 kts 44°
2026-04-25 14:38 44.74763 -71.75751 33139 ft 482 kts 45°
2026-04-25 14:39 44.78493 -71.67877 33131 ft 482 kts 45°
2026-04-25 14:39 44.82209 -71.60019 33138 ft 482 kts 45°
2026-04-25 14:40 44.85904 -71.52177 33143 ft 483 kts 46°
2026-04-25 14:40 44.89624 -71.44265 33134 ft 484 kts 46°
2026-04-25 14:41 44.93331 -71.36349 33123 ft 484 kts 46°
2026-04-25 14:41 44.95270 -71.32201 33129 ft 484 kts 46°
2026-04-25 14:42 44.98347 -71.25607 33132 ft 483 kts 47°
2026-04-25 14:42 45.02662 -71.16334 33128 ft 483 kts 47°
2026-04-25 14:43 45.06347 -71.08389 33131 ft 483 kts 47°
2026-04-25 14:43 45.10027 -71.00509 33122 ft 481 kts 45°
2026-04-25 14:44 45.14295 -70.93395 33129 ft 471 kts 38°
2026-04-25 14:44 45.18792 -70.86646 33121 ft 471 kts 38°
2026-04-25 14:45 45.23277 -70.79868 33119 ft 471 kts 39°
2026-04-25 14:45 45.27735 -70.73051 33117 ft 471 kts 39°
2026-04-25 14:46 45.32188 -70.66201 33131 ft 472 kts 39°
2026-04-25 14:46 45.36646 -70.59322 33122 ft 472 kts 40°
2026-04-25 14:47 45.40342 -70.53604 33115 ft 471 kts 40°
2026-04-25 14:47 45.45498 -70.45605 33117 ft 472 kts 41°
2026-04-25 14:48 45.49943 -70.38701 33098 ft 472 kts 41°
2026-04-25 14:48 45.54376 -70.31793 33109 ft 472 kts 41°
2026-04-25 14:49 45.58809 -70.24868 33111 ft 472 kts 41°
2026-04-25 14:49 45.63212 -70.17976 33116 ft 473 kts 42°
2026-04-25 14:50 45.67645 -70.11017 33109 ft 473 kts 42°
2026-04-25 14:50 45.72079 -70.04039 33102 ft 473 kts 42°
2026-04-25 14:51 45.76473 -69.97108 33104 ft 473 kts 43°
2026-04-25 14:51 45.80890 -69.90121 33100 ft 473 kts 43°
2026-04-25 14:52 45.85299 -69.83121 33107 ft 472 kts 43°
2026-04-25 14:52 45.88965 -69.77298 33099 ft 473 kts 43°
2026-04-25 14:53 45.94113 -69.69097 33103 ft 472 kts 43°
2026-04-25 14:53 45.98513 -69.62065 33102 ft 473 kts 43°
2026-04-25 14:54 46.02884 -69.55060 33105 ft 473 kts 44°
2026-04-25 14:54 46.07275 -69.48005 33112 ft 471 kts 44°
2026-04-25 14:55 46.11652 -69.40953 33123 ft 471 kts 44°
2026-04-25 14:55 46.15987 -69.33957 33118 ft 471 kts 44°
2026-04-25 14:56 46.20349 -69.26898 33120 ft 471 kts 44°
2026-04-25 14:56 46.22582 -69.23273 33120 ft 471 kts 45°
2026-04-25 14:57 46.26936 -69.16197 33118 ft 470 kts 45°
2026-04-25 14:57 46.31273 -69.09134 33121 ft 470 kts 45°
2026-04-25 14:58 46.35580 -69.02097 33121 ft 469 kts 45°
2026-04-25 14:58 46.39908 -68.95005 33116 ft 469 kts 46°
2026-04-25 14:59 46.44224 -68.87915 33125 ft 468 kts 46°
2026-04-25 14:59 46.48536 -68.80819 33119 ft 468 kts 46°
2026-04-25 15:00 46.52844 -68.73711 33123 ft 469 kts 46°
2026-04-25 15:00 46.57155 -68.66588 33118 ft 468 kts 46°
2026-04-25 15:01 46.61240 -68.59290 33118 ft 469 kts 49°
2026-04-25 15:01 46.65383 -68.51938 33113 ft 469 kts 48°
2026-04-25 15:02 46.69540 -68.44621 33106 ft 468 kts 48°
2026-04-25 15:02 46.73709 -68.37321 33102 ft 467 kts 48°
2026-04-25 15:03 46.77880 -68.30043 33100 ft 468 kts 48°
2026-04-25 15:03 46.82043 -68.22804 33103 ft 467 kts 48°
2026-04-25 15:04 46.86233 -68.15538 33098 ft 466 kts 48°
2026-04-25 15:04 46.90412 -68.08306 33091 ft 465 kts 48°
2026-04-25 15:05 46.94596 -68.01080 33094 ft 464 kts 48°
2026-04-25 15:06 47.00864 -67.90255 33090 ft 464 kts 49°
2026-04-25 15:06 47.04986 -67.83080 33094 ft 462 kts 49°
2026-04-25 15:07 47.09118 -67.75852 33087 ft 462 kts 50°
2026-04-25 15:07 47.13134 -67.68495 33093 ft 462 kts 51°
2026-04-25 15:08 47.17234 -67.61234 33083 ft 464 kts 48°
2026-04-25 15:08 47.21484 -67.53988 33089 ft 468 kts 47°
2026-04-25 15:09 47.25710 -67.46731 33080 ft 466 kts 48°
2026-04-25 15:09 47.31976 -67.35865 33091 ft 465 kts 48°
2026-04-25 15:10 47.36162 -67.28582 33092 ft 466 kts 49°
2026-04-25 15:11 47.42236 -67.17396 33091 ft 465 kts 50°
2026-04-25 15:11 47.46225 -67.09870 33092 ft 465 kts 50°
2026-04-25 15:12 47.50199 -67.02395 33090 ft 465 kts 50°
2026-04-25 15:12 47.52851 -66.97418 33091 ft 464 kts 50°
2026-04-25 15:13 47.60167 -66.83657 33093 ft 463 kts 50°
2026-04-25 15:14 47.64117 -66.76198 33089 ft 464 kts 51°
2026-04-25 15:14 47.68137 -66.68591 33085 ft 464 kts 51°
2026-04-25 15:15 47.72110 -66.61042 33081 ft 463 kts 51°
2026-04-25 15:15 47.76067 -66.53501 33084 ft 462 kts 51°
2026-04-25 15:16 47.80017 -66.45957 33084 ft 462 kts 51°
2026-04-25 15:16 47.85900 -66.34682 33086 ft 461 kts 51°
2026-04-25 15:17 47.91788 -66.23349 33084 ft 460 kts 51°
2026-04-25 15:18 47.95704 -66.15787 33074 ft 460 kts 51°
2026-04-25 15:18 48.00898 -66.05716 33072 ft 459 kts 51°
2026-04-25 15:19 48.04144 -65.99418 33077 ft 460 kts 51°
2026-04-25 15:19 48.08700 -65.90543 33075 ft 460 kts 51°
2026-04-25 15:20 48.12565 -65.82989 33073 ft 460 kts 51°
2026-04-25 15:20 48.16445 -65.75379 33069 ft 460 kts 51°
2026-04-25 15:21 48.20328 -65.67745 33065 ft 460 kts 51°
2026-04-25 15:21 48.24209 -65.60096 33068 ft 459 kts 51°
2026-04-25 15:22 48.28051 -65.52499 33062 ft 459 kts 52°
2026-04-25 15:22 48.31909 -65.44852 33061 ft 459 kts 51°
2026-04-25 15:23 48.35769 -65.37179 33055 ft 459 kts 51°
2026-04-25 15:23 48.39617 -65.29506 33058 ft 459 kts 51°
2026-04-25 15:24 48.43459 -65.21827 33053 ft 459 kts 51°
2026-04-25 15:24 48.46651 -65.15430 33057 ft 459 kts 51°
2026-04-25 15:25 48.51098 -65.06489 33043 ft 458 kts 51°
2026-04-25 15:25 48.54924 -64.98770 33051 ft 458 kts 51°
2026-04-25 15:26 48.58743 -64.91049 33041 ft 459 kts 51°
2026-04-25 15:26 48.62538 -64.83354 33040 ft 458 kts 51°
2026-04-25 15:27 48.64490 -64.79387 33035 ft 458 kts 51°
2026-04-25 15:28 48.70181 -64.67788 33036 ft 458 kts 52°
2026-04-25 15:28 48.73973 -64.60028 33037 ft 458 kts 51°
2026-04-25 15:29 48.77755 -64.52274 33039 ft 457 kts 52°
2026-04-25 15:29 48.81532 -64.44505 33036 ft 457 kts 52°
2026-04-25 15:30 48.85277 -64.36773 33042 ft 457 kts 52°
2026-04-25 15:30 48.89039 -64.28987 33038 ft 456 kts 52°
2026-04-25 15:31 48.92795 -64.21189 33031 ft 457 kts 52°
2026-04-25 15:31 48.96546 -64.13382 33039 ft 457 kts 52°
2026-04-25 15:32 49.00297 -64.05555 33040 ft 456 kts 52°
2026-04-25 15:32 49.04010 -63.97785 33036 ft 456 kts 52°
2026-04-25 15:33 49.09601 -63.86042 33038 ft 456 kts 52°
2026-04-25 15:33 49.13322 -63.78188 33028 ft 456 kts 52°
2026-04-25 15:34 49.17034 -63.70333 33031 ft 456 kts 52°
2026-04-25 15:34 49.20121 -63.63789 33031 ft 456 kts 52°
2026-04-25 15:35 49.26296 -63.50642 33014 ft 456 kts 52°
2026-04-25 15:36 49.31805 -63.38862 33000 ft 455 kts 52°
2026-04-25 15:36 49.35491 -63.30955 32999 ft 455 kts 52°
2026-04-25 15:37 49.39171 -63.23032 32996 ft 455 kts 52°
2026-04-25 15:37 49.42845 -63.15093 32994 ft 455 kts 52°
2026-04-25 15:38 49.46512 -63.07156 32989 ft 455 kts 52°
2026-04-25 15:38 49.50151 -62.99250 32981 ft 455 kts 52°
2026-04-25 15:39 49.53807 -62.91285 32981 ft 455 kts 52°
2026-04-25 15:39 49.57448 -62.83329 32978 ft 454 kts 52°
2026-04-25 15:40 49.59878 -62.78005 32974 ft 454 kts 52°
2026-04-25 15:40 49.64707 -62.67399 32967 ft 454 kts 52°
2026-04-25 15:41 49.68330 -62.59416 32965 ft 454 kts 52°
2026-04-25 15:41 49.71948 -62.51412 32953 ft 453 kts 52°
2026-04-25 15:42 49.73785 -62.47336 32955 ft 453 kts 52°
2026-04-25 15:42 49.77363 -62.39385 32945 ft 452 kts 51°
2026-04-25 15:43 49.80951 -62.31390 32941 ft 451 kts 51°
2026-04-25 15:43 49.84533 -62.23395 32935 ft 452 kts 52°
2026-04-25 15:44 49.88110 -62.15380 32929 ft 451 kts 51°
2026-04-25 15:44 49.91666 -62.07380 32922 ft 451 kts 52°
2026-04-25 15:45 49.95210 -61.99395 32918 ft 451 kts 51°
2026-04-25 15:45 49.97589 -61.94020 32920 ft 451 kts 52°
2026-04-25 15:46 50.02315 -61.83304 32903 ft 451 kts 52°
2026-04-25 15:46 50.05854 -61.75234 32904 ft 451 kts 52°
2026-04-25 15:47 50.09388 -61.67156 32908 ft 451 kts 52°
2026-04-25 15:47 50.12904 -61.59054 32906 ft 451 kts 52°
2026-04-25 15:48 50.16416 -61.50937 32908 ft 451 kts 52°
2026-04-25 15:48 50.19923 -61.42833 32909 ft 450 kts 52°
2026-04-25 15:49 50.23416 -61.34754 32911 ft 451 kts 53°
2026-04-25 15:49 50.26924 -61.26631 32904 ft 451 kts 53°
2026-04-25 15:50 50.30425 -61.18493 32920 ft 451 kts 53°
2026-04-25 15:50 50.33923 -61.10337 32916 ft 451 kts 53°
2026-04-25 15:51 50.36236 -61.04926 32901 ft 452 kts 53°
2026-04-25 15:51 50.40905 -60.93975 32913 ft 452 kts 53°
2026-04-25 15:52 50.44386 -60.85781 32918 ft 454 kts 53°
2026-04-25 15:52 50.47887 -60.77520 32914 ft 454 kts 53°
2026-04-25 15:53 50.51383 -60.69237 32912 ft 455 kts 54°
2026-04-25 15:53 50.54877 -60.60933 32915 ft 455 kts 54°
2026-04-25 15:54 50.58340 -60.52676 32908 ft 455 kts 54°
2026-04-25 15:54 50.61845 -60.44292 32916 ft 456 kts 54°
2026-04-25 15:55 50.65303 -60.35993 32919 ft 456 kts 54°
2026-04-25 15:55 50.68780 -60.27628 32886 ft 455 kts 54°
2026-04-25 15:56 50.72245 -60.19265 32880 ft 455 kts 54°
2026-04-25 15:56 50.75704 -60.10892 32881 ft 455 kts 54°
2026-04-25 15:57 50.78010 -60.05284 32878 ft 455 kts 54°
2026-04-25 15:57 50.80914 -59.98212 32869 ft 454 kts 54°
2026-04-25 15:58 50.84336 -59.89855 32874 ft 455 kts 55°
2026-04-25 15:58 50.87774 -59.81436 32870 ft 455 kts 55°
2026-04-25 15:59 50.91208 -59.72996 32867 ft 454 kts 55°
2026-04-25 15:59 50.94594 -59.64641 32865 ft 453 kts 55°
2026-04-25 16:00 50.96871 -59.59016 32857 ft 452 kts 55°
2026-04-25 16:00 51.01390 -59.47810 32861 ft 452 kts 55°
2026-04-25 16:01 51.04772 -59.39384 32852 ft 452 kts 56°
2026-04-25 16:01 51.08122 -59.31017 32851 ft 451 kts 56°
2026-04-25 16:02 51.11513 -59.22524 32851 ft 451 kts 56°
2026-04-25 16:02 51.14847 -59.14136 32847 ft 451 kts 56°
2026-04-25 16:03 51.18201 -59.05673 32841 ft 451 kts 56°
2026-04-25 16:03 51.21550 -58.97204 32834 ft 451 kts 56°
2026-04-25 16:04 51.24324 -58.90164 32831 ft 450 kts 56°
2026-04-25 16:04 51.28215 -58.80253 32832 ft 451 kts 56°
2026-04-25 16:05 51.31523 -58.71800 32821 ft 450 kts 56°
2026-04-25 16:06 51.36485 -58.59069 32816 ft 449 kts 57°
2026-04-25 16:06 51.39226 -58.52007 32812 ft 449 kts 57°
2026-04-25 16:07 51.43049 -58.42123 32812 ft 448 kts 57°
2026-04-25 16:07 51.45794 -58.35008 32802 ft 447 kts 57°
2026-04-25 16:08 51.49036 -58.26577 32818 ft 445 kts 57°
2026-04-25 16:08 51.52284 -58.18092 32821 ft 447 kts 57°
2026-04-25 16:09 51.55528 -58.09603 32813 ft 445 kts 57°
2026-04-25 16:09 51.58763 -58.01104 32800 ft 444 kts 57°
2026-04-25 16:10 51.61978 -57.92628 32805 ft 444 kts 57°
2026-04-25 16:10 51.65191 -57.84127 32789 ft 444 kts 57°
2026-04-25 16:11 51.68404 -57.75604 32786 ft 444 kts 57°
2026-04-25 16:11 51.71610 -57.67072 32788 ft 445 kts 57°
2026-04-25 16:12 51.74792 -57.58573 32787 ft 445 kts 58°
2026-04-25 16:12 51.76391 -57.54292 32786 ft 446 kts 58°
2026-04-25 16:13 51.79622 -57.45608 32787 ft 446 kts 58°
2026-04-25 16:13 51.82829 -57.36973 32785 ft 447 kts 58°
2026-04-25 16:14 51.86032 -57.28318 32777 ft 448 kts 58°
2026-04-25 16:14 51.89230 -57.19648 32785 ft 449 kts 58°
2026-04-25 16:15 51.92432 -57.10936 32789 ft 450 kts 58°
2026-04-25 16:15 51.95608 -57.02266 32774 ft 450 kts 58°
2026-04-25 16:16 51.98800 -56.93515 32782 ft 451 kts 58°
2026-04-25 16:16 52.01982 -56.84756 32792 ft 449 kts 58°
2026-04-25 16:17 52.05120 -56.76097 32784 ft 443 kts 58°
2026-04-25 16:17 52.08247 -56.67441 32794 ft 445 kts 59°
2026-04-25 16:18 52.11387 -56.58715 32800 ft 447 kts 59°
2026-04-25 16:18 52.14505 -56.50032 32795 ft 447 kts 59°
2026-04-25 16:19 52.17636 -56.41271 32800 ft 447 kts 59°
2026-04-25 16:19 52.20766 -56.32482 32807 ft 449 kts 59°
2026-04-25 16:20 52.25460 -56.19242 32807 ft 449 kts 59°
2026-04-25 16:21 52.30146 -56.05959 32815 ft 450 kts 59°
2026-04-25 16:21 52.33262 -55.97083 32811 ft 450 kts 59°
2026-04-25 16:22 52.36370 -55.88206 32815 ft 450 kts 59°
2026-04-25 16:22 52.39392 -55.79333 32801 ft 448 kts 66°
2026-04-25 16:22 52.40212 -55.74393 32816 ft 454 kts 82°
2026-04-25 16:23 52.40470 -55.69245 32825 ft 455 kts 82°
2026-04-25 16:23 52.41383 -55.58960 32806 ft 454 kts 77°
2026-04-25 16:24 52.42611 -55.48887 32800 ft 453 kts 76°
2026-04-25 16:24 52.43914 -55.38797 32805 ft 453 kts 76°
2026-04-25 16:25 52.45199 -55.28680 32814 ft 454 kts 76°
2026-04-25 16:25 52.46461 -55.18533 32816 ft 454 kts 76°
2026-04-25 16:26 52.47710 -55.08371 32813 ft 454 kts 77°
2026-04-25 16:26 52.48947 -54.98202 32817 ft 454 kts 77°
2026-04-25 16:27 52.50170 -54.88070 32814 ft 455 kts 77°
2026-04-25 16:27 52.51189 -54.79577 32822 ft 456 kts 77°
2026-04-25 16:28 52.52022 -54.72622 32826 ft 457 kts 77°
2026-04-25 16:28 52.53239 -54.62363 32825 ft 457 kts 77°
2026-04-25 16:29 52.54446 -54.52082 32822 ft 459 kts 77°
2026-04-25 16:29 52.55642 -54.41834 32829 ft 460 kts 77°
2026-04-25 16:30 52.56842 -54.31493 32835 ft 460 kts 78°
2026-04-25 16:30 52.58030 -54.21144 32832 ft 461 kts 78°
2026-04-25 16:31 52.59209 -54.10786 32834 ft 461 kts 78°
2026-04-25 16:31 52.60384 -54.00389 32834 ft 461 kts 78°
2026-04-25 16:32 52.61548 -53.89995 32833 ft 463 kts 78°
2026-04-25 16:32 52.62699 -53.79632 32833 ft 463 kts 78°
2026-04-25 16:33 52.63850 -53.69188 32833 ft 462 kts 78°
2026-04-25 16:33 52.64987 -53.58781 32832 ft 461 kts 78°
2026-04-25 16:34 52.66114 -53.48373 32835 ft 462 kts 78°
2026-04-25 16:34 52.67233 -53.37947 32833 ft 461 kts 79°
2026-04-25 16:35 52.68332 -53.27628 32834 ft 460 kts 79°
2026-04-25 16:35 52.69430 -53.17230 32833 ft 460 kts 79°
2026-04-25 16:36 52.70517 -53.06832 32833 ft 459 kts 79°
2026-04-25 16:36 52.71595 -52.96433 32832 ft 459 kts 79°
2026-04-25 16:37 52.72661 -52.86048 32835 ft 459 kts 79°
2026-04-25 16:37 52.73717 -52.75706 32834 ft 460 kts 79°
2026-04-25 16:38 52.74767 -52.65286 32836 ft 460 kts 79°
2026-04-25 16:38 52.75809 -52.54872 32868 ft 460 kts 79°
2026-04-25 16:39 52.76844 -52.44415 32881 ft 461 kts 80°
2026-04-25 16:39 52.77869 -52.33958 32879 ft 461 kts 80°
2026-04-25 16:40 52.78879 -52.23580 32881 ft 460 kts 80°
2026-04-25 16:40 52.79887 -52.13118 32880 ft 460 kts 80°
2026-04-25 16:41 52.80886 -52.02653 32881 ft 460 kts 80°
2026-04-25 16:41 52.82365 -51.86948 32887 ft 461 kts 81°
2026-04-25 16:42 52.83342 -51.76447 32886 ft 461 kts 81°
2026-04-25 16:42 52.83983 -51.69499 32900 ft 461 kts 81°
2026-04-25 16:43 52.84796 -51.60628 32887 ft 461 kts 81°
2026-04-25 16:43 52.85748 -51.50139 32887 ft 461 kts 81°
2026-04-25 16:44 52.86689 -51.39655 32896 ft 461 kts 81°
2026-04-25 16:44 52.87622 -51.29164 32888 ft 461 kts 81°
2026-04-25 16:45 52.88547 -51.18682 32887 ft 461 kts 81°
2026-04-25 16:45 52.89460 -51.08171 32904 ft 460 kts 81°
2026-04-25 16:46 52.90363 -50.97667 32900 ft 460 kts 82°
2026-04-25 16:46 52.90959 -50.90706 32896 ft 460 kts 82°
2026-04-25 16:47 52.92143 -50.76688 32895 ft 461 kts 82°
2026-04-25 16:47 52.93021 -50.66156 32896 ft 461 kts 82°
2026-04-25 16:48 52.93891 -50.55614 32898 ft 461 kts 82°
2026-04-25 16:48 52.94751 -50.45076 32898 ft 461 kts 82°
2026-04-25 16:49 52.95601 -50.34534 32901 ft 461 kts 82°
2026-04-25 16:49 52.96443 -50.23989 32895 ft 461 kts 82°
2026-04-25 16:50 52.97271 -50.13501 32895 ft 461 kts 82°
2026-04-25 16:50 52.98096 -50.02932 32903 ft 461 kts 83°
2026-04-25 16:51 52.99302 -49.92487 32906 ft 461 kts 77°
2026-04-25 16:51 53.00318 -49.85567 32909 ft 462 kts 77°
2026-04-25 16:52 53.02082 -49.73508 32903 ft 462 kts 77°
2026-04-25 16:52 53.03568 -49.63146 32912 ft 461 kts 77°
2026-04-25 16:53 53.05757 -49.47591 32814 ft 462 kts 77°
2026-04-25 16:54 53.07206 -49.37192 32806 ft 461 kts 77°
2026-04-25 16:54 53.08652 -49.26786 32804 ft 461 kts 78°
2026-04-25 16:55 53.10087 -49.16367 32809 ft 462 kts 78°
2026-04-25 16:55 53.11513 -49.05927 32804 ft 462 kts 78°
2026-04-25 16:56 53.12919 -48.95564 32806 ft 462 kts 78°
2026-04-25 16:56 53.14328 -48.85113 32805 ft 462 kts 78°
2026-04-25 16:57 53.15725 -48.74665 32805 ft 462 kts 78°
2026-04-25 16:57 53.17117 -48.64194 32805 ft 462 kts 78°
2026-04-25 16:58 53.17949 -48.57876 32806 ft 462 kts 78°
2026-04-25 16:58 53.19204 -48.48346 32805 ft 462 kts 78°
2026-04-25 16:59 53.20572 -48.37879 32806 ft 461 kts 78°
2026-04-25 16:59 53.21916 -48.27486 32806 ft 462 kts 79°
2026-04-25 17:00 53.23263 -48.17005 32805 ft 462 kts 79°
2026-04-25 17:00 53.24602 -48.06517 32806 ft 462 kts 79°
2026-04-25 17:01 53.25933 -47.96013 32805 ft 462 kts 79°
2026-04-25 17:01 53.27255 -47.85495 32805 ft 462 kts 79°
2026-04-25 17:02 53.28560 -47.75036 32805 ft 462 kts 79°
2026-04-25 17:02 53.29861 -47.64508 32806 ft 461 kts 79°
2026-04-25 17:03 53.31151 -47.54006 32804 ft 461 kts 79°
2026-04-25 17:03 53.32435 -47.43483 32806 ft 462 kts 79°
2026-04-25 17:04 53.33707 -47.32953 32805 ft 462 kts 80°
2026-04-25 17:04 53.34972 -47.22410 32806 ft 461 kts 80°
2026-04-25 17:05 53.36219 -47.11949 32804 ft 461 kts 80°
2026-04-25 17:05 53.38080 -46.96145 32807 ft 460 kts 80°
2026-04-25 17:06 53.39310 -46.85602 32805 ft 461 kts 81°
2026-04-25 17:06 53.40523 -46.75131 32805 ft 461 kts 81°
2026-04-25 17:07 53.41735 -46.64569 32806 ft 461 kts 81°
2026-04-25 17:07 53.42940 -46.53995 32811 ft 461 kts 81°
2026-04-25 17:08 53.44132 -46.43423 32816 ft 462 kts 81°
2026-04-25 17:08 53.45314 -46.32832 32814 ft 461 kts 81°
2026-04-25 17:09 53.46487 -46.22248 32814 ft 461 kts 81°
2026-04-25 17:09 53.47655 -46.11654 32816 ft 461 kts 82°
2026-04-25 17:10 53.48805 -46.01121 32815 ft 461 kts 82°
2026-04-25 17:10 53.49952 -45.90504 32813 ft 462 kts 82°
2026-04-25 17:11 53.51093 -45.79870 32815 ft 462 kts 82°
2026-04-25 17:11 53.52234 -45.69232 32821 ft 462 kts 81°
2026-04-25 17:12 53.53383 -45.58582 32825 ft 462 kts 82°
2026-04-25 17:12 53.54500 -45.47927 32823 ft 463 kts 82°
2026-04-25 17:13 53.54908 -45.43985 32823 ft 463 kts 82°
2026-04-25 17:13 53.56195 -45.31421 32804 ft 462 kts 82°
2026-04-25 17:14 53.57269 -45.20749 32774 ft 462 kts 82°
2026-04-25 17:14 53.58342 -45.10085 32767 ft 462 kts 83°
2026-04-25 17:15 53.59407 -44.99420 32776 ft 462 kts 83°
2026-04-25 17:15 53.60467 -44.88738 32776 ft 462 kts 83°
2026-04-25 17:16 53.61518 -44.78040 32778 ft 463 kts 83°
2026-04-25 17:16 53.62561 -44.67347 32781 ft 463 kts 83°
2026-04-25 17:17 53.63593 -44.56630 32785 ft 463 kts 83°
2026-04-25 17:17 53.64599 -44.45970 32787 ft 463 kts 84°
2026-04-25 17:18 53.65599 -44.35253 32786 ft 463 kts 84°
2026-04-25 17:18 53.66602 -44.24529 32792 ft 463 kts 84°
2026-04-25 17:19 53.67599 -44.13793 32798 ft 463 kts 84°
2026-04-25 17:19 53.68584 -44.03044 32796 ft 463 kts 84°
2026-04-25 17:20 53.69559 -43.92297 32796 ft 463 kts 84°
2026-04-25 17:20 53.70521 -43.81552 32803 ft 463 kts 84°
2026-04-25 17:21 53.71471 -43.70873 32806 ft 463 kts 84°
2026-04-25 17:21 53.72419 -43.60095 32806 ft 464 kts 84°
2026-04-25 17:22 53.73048 -43.52881 32805 ft 464 kts 84°
2026-04-25 17:22 53.74285 -43.38543 32808 ft 464 kts 85°
2026-04-25 17:23 53.75205 -43.27723 32816 ft 465 kts 85°
2026-04-25 17:23 53.76111 -43.16935 32813 ft 466 kts 85°
2026-04-25 17:24 53.77016 -43.06074 32816 ft 466 kts 85°
2026-04-25 17:24 53.77910 -42.95187 32814 ft 467 kts 85°
2026-04-25 17:25 53.78797 -42.84283 32825 ft 468 kts 86°
2026-04-25 17:25 53.79676 -42.73360 32826 ft 469 kts 86°
2026-04-25 17:26 53.80541 -42.62482 32823 ft 469 kts 86°
2026-04-25 17:26 53.81401 -42.51522 32824 ft 470 kts 86°
2026-04-25 17:27 53.82253 -42.40546 32828 ft 471 kts 86°
2026-04-25 17:27 53.82812 -42.33256 32834 ft 471 kts 86°
2026-04-25 17:28 53.83521 -42.24028 32834 ft 471 kts 86°
2026-04-25 17:28 53.84405 -42.12550 32831 ft 472 kts 86°
2026-04-25 17:29 53.85225 -42.01516 32835 ft 472 kts 86°
2026-04-25 17:29 53.86017 -41.90493 32834 ft 471 kts 86°
2026-04-25 17:30 53.86809 -41.79467 32844 ft 472 kts 86°
2026-04-25 17:30 53.87600 -41.68423 32843 ft 472 kts 86°
2026-04-25 17:31 53.88377 -41.57375 32845 ft 472 kts 86°
2026-04-25 17:31 53.89149 -41.46312 32845 ft 473 kts 87°
2026-04-25 17:32 53.89904 -41.35285 32839 ft 474 kts 87°
2026-04-25 17:32 53.90652 -41.24177 32848 ft 474 kts 87°
2026-04-25 17:33 53.91398 -41.13034 32853 ft 476 kts 87°
2026-04-25 17:33 53.92131 -41.01868 32850 ft 476 kts 87°
2026-04-25 17:34 53.92857 -40.90666 32851 ft 478 kts 88°
2026-04-25 17:34 53.93571 -40.79427 32850 ft 479 kts 88°
2026-04-25 17:35 53.94275 -40.68252 32851 ft 480 kts 88°
2026-04-25 17:35 53.94974 -40.56960 32861 ft 482 kts 88°
2026-04-25 17:36 53.95662 -40.45633 32861 ft 482 kts 88°
2026-04-25 17:36 53.96342 -40.34286 32859 ft 483 kts 88°
2026-04-25 17:37 53.97013 -40.22908 32863 ft 484 kts 88°
2026-04-25 17:37 53.97673 -40.11515 32861 ft 484 kts 88°
2026-04-25 17:38 53.98106 -40.03967 32861 ft 484 kts 88°
2026-04-25 17:38 53.98783 -39.90628 32860 ft 483 kts 89°
2026-04-25 17:39 53.99222 -39.79226 32860 ft 483 kts 90°
2026-04-25 17:39 53.99643 -39.67818 32860 ft 483 kts 90°
2026-04-25 17:40 54.00069 -39.56462 32861 ft 484 kts 90°
2026-04-25 17:40 54.00500 -39.44995 32864 ft 486 kts 90°
2026-04-25 17:41 54.00923 -39.33507 32869 ft 488 kts 90°
2026-04-25 17:41 54.01332 -39.21979 32870 ft 489 kts 90°
2026-04-25 17:42 54.01728 -39.10467 32871 ft 491 kts 90°
2026-04-25 17:42 54.02117 -38.98853 32870 ft 492 kts 90°
2026-04-25 17:43 54.02499 -38.87221 32871 ft 493 kts 90°
2026-04-25 17:43 54.02710 -38.80630 32872 ft 494 kts 90°
2026-04-25 17:44 54.03076 -38.68945 32871 ft 495 kts 90°
2026-04-25 17:44 54.03431 -38.57230 32869 ft 496 kts 90°
2026-04-25 17:45 54.03714 -38.47469 32873 ft 496 kts 90°
2026-04-25 17:45 54.04099 -38.33833 32881 ft 496 kts 91°
2026-04-25 17:46 54.04416 -38.22093 32879 ft 496 kts 91°
2026-04-25 17:46 54.04725 -38.10344 32876 ft 497 kts 91°
2026-04-25 17:47 54.05025 -37.98581 32880 ft 497 kts 91°
2026-04-25 17:47 54.05310 -37.86878 32881 ft 497 kts 91°
2026-04-25 17:48 54.05716 -37.69247 32881 ft 497 kts 91°
2026-04-25 17:49 54.05972 -37.57559 32879 ft 497 kts 91°
2026-04-25 17:49 54.06217 -37.45796 32879 ft 498 kts 91°
2026-04-25 17:50 54.06452 -37.33998 32886 ft 499 kts 91°
2026-04-25 17:50 54.06676 -37.22176 32885 ft 500 kts 91°
2026-04-25 17:51 54.06888 -37.10317 32888 ft 501 kts 91°
2026-04-25 17:51 54.07091 -36.98451 32899 ft 502 kts 91°
2026-04-25 17:52 54.07282 -36.86555 32905 ft 502 kts 91°
2026-04-25 17:52 54.07461 -36.74667 32907 ft 503 kts 91°
2026-04-25 17:53 54.07628 -36.62741 32911 ft 504 kts 91°
2026-04-25 17:53 54.07782 -36.50796 32906 ft 504 kts 91°
2026-04-25 17:54 54.07922 -36.38850 32909 ft 505 kts 92°
2026-04-25 17:54 54.08051 -36.26959 32903 ft 505 kts 92°
2026-04-25 17:55 54.08175 -36.14975 32895 ft 505 kts 92°
2026-04-25 17:55 54.08287 -36.03001 32888 ft 505 kts 92°
2026-04-25 17:56 54.08382 -35.91035 32888 ft 505 kts 92°
2026-04-25 17:56 54.08464 -35.79069 32888 ft 505 kts 92°
2026-04-25 17:57 54.08536 -35.67110 32904 ft 505 kts 92°
2026-04-25 17:57 54.08598 -35.55144 32898 ft 503 kts 92°
2026-04-25 17:58 54.08648 -35.43251 32895 ft 506 kts 92°
2026-04-25 17:58 54.08674 -35.35210 32904 ft 507 kts 92°
2026-04-25 17:59 54.08698 -35.24434 32895 ft 508 kts 92°
2026-04-25 17:59 54.08716 -35.12456 32899 ft 508 kts 92°
2026-04-25 18:00 54.08721 -35.00404 32908 ft 509 kts 92°
2026-04-25 18:00 54.08713 -34.88324 32907 ft 510 kts 92°
2026-04-25 18:01 54.08696 -34.76209 32906 ft 512 kts 92°
2026-04-25 18:01 54.08666 -34.64078 32911 ft 513 kts 92°
2026-04-25 18:02 54.08622 -34.51906 32905 ft 514 kts 93°
2026-04-25 18:02 54.08567 -34.39782 32922 ft 515 kts 93°
2026-04-25 18:03 54.08503 -34.27578 32916 ft 515 kts 93°
2026-04-25 18:03 54.08424 -34.15367 32917 ft 515 kts 93°
2026-04-25 18:04 54.08330 -34.03137 32917 ft 516 kts 93°
2026-04-25 18:04 54.08226 -33.90922 32917 ft 516 kts 94°
2026-04-25 18:05 54.08109 -33.78704 32918 ft 516 kts 94°
2026-04-25 18:05 54.07981 -33.66478 32926 ft 516 kts 94°
2026-04-25 18:06 54.07838 -33.54332 32926 ft 515 kts 94°
2026-04-25 18:06 54.07685 -33.42126 32926 ft 515 kts 93°
2026-04-25 18:07 54.07521 -33.29932 32925 ft 515 kts 94°
2026-04-25 18:07 54.07342 -33.17745 32925 ft 515 kts 93°
2026-04-25 18:08 54.07151 -33.05566 32936 ft 512 kts 94°
2026-04-25 18:08 54.06950 -32.93472 32933 ft 510 kts 94°
2026-04-25 18:09 54.06736 -32.81357 32939 ft 512 kts 94°
2026-04-25 18:09 54.06510 -32.69286 32934 ft 513 kts 94°
2026-04-25 18:10 54.06270 -32.57136 32934 ft 513 kts 94°
2026-04-25 18:10 54.06019 -32.44981 32935 ft 514 kts 94°
2026-04-25 18:11 54.05757 -32.32830 32935 ft 514 kts 94°
2026-04-25 18:11 54.05479 -32.20672 32947 ft 514 kts 94°
2026-04-25 18:12 54.05190 -32.08489 32944 ft 514 kts 94°
2026-04-25 18:12 54.04892 -31.96394 32944 ft 514 kts 94°
2026-04-25 18:13 54.04579 -31.84228 32943 ft 514 kts 94°
2026-04-25 18:13 54.04255 -31.72052 32945 ft 514 kts 94°
2026-04-25 18:14 54.03903 -31.59382 32940 ft 514 kts 94°
2026-04-25 18:14 54.03551 -31.47216 32945 ft 515 kts 94°
2026-04-25 18:15 54.03188 -31.35045 32951 ft 515 kts 94°
2026-04-25 18:15 54.02817 -31.22937 32956 ft 516 kts 94°
2026-04-25 18:16 54.02428 -31.10735 32953 ft 516 kts 94°
2026-04-25 18:17 54.01820 -30.92439 33025 ft 517 kts 94°
2026-04-25 18:17 54.01401 -30.80222 33090 ft 518 kts 94°
2026-04-25 18:18 54.00969 -30.67972 33091 ft 519 kts 94°
2026-04-25 18:18 54.00522 -30.55723 33092 ft 520 kts 94°
2026-04-25 18:19 54.00059 -30.43429 33093 ft 521 kts 94°
2026-04-25 18:19 53.99591 -30.31223 33091 ft 521 kts 95°
2026-04-25 18:20 53.99103 -30.18909 33094 ft 522 kts 95°
2026-04-25 18:20 53.98605 -30.06576 33092 ft 522 kts 95°
2026-04-25 18:21 53.98456 -29.94240 33093 ft 523 kts 86°
2026-04-25 18:21 53.98983 -29.81989 33095 ft 523 kts 85°
2026-04-25 18:22 53.99533 -29.69675 33092 ft 523 kts 86°
2026-04-25 18:22 54.00036 -29.57350 33093 ft 523 kts 86°
2026-04-25 18:23 54.00500 -29.45025 33092 ft 521 kts 86°
2026-04-25 18:23 54.00941 -29.32732 33094 ft 521 kts 86°
2026-04-25 18:24 54.01376 -29.20443 33093 ft 520 kts 86°
2026-04-25 18:24 54.01734 -29.10152 33092 ft 520 kts 86°
2026-04-25 18:25 54.02144 -28.97918 33093 ft 521 kts 86°
2026-04-25 18:25 54.02545 -28.85605 33092 ft 522 kts 86°
2026-04-25 18:26 54.02935 -28.73275 33091 ft 522 kts 86°
2026-04-25 18:26 54.03307 -28.60997 33092 ft 523 kts 86°
2026-04-25 18:27 54.03671 -28.48645 33092 ft 523 kts 86°
2026-04-25 18:27 54.04026 -28.36247 33092 ft 524 kts 86°
2026-04-25 18:28 54.04367 -28.23831 33093 ft 525 kts 86°
2026-04-25 18:28 54.04694 -28.11403 33092 ft 526 kts 86°
2026-04-25 18:29 54.05020 -27.98468 33094 ft 526 kts 87°
2026-04-25 18:30 54.05610 -27.73553 33092 ft 526 kts 87°
2026-04-25 18:30 54.05888 -27.61123 33093 ft 525 kts 87°
2026-04-25 18:31 54.06150 -27.48771 33092 ft 524 kts 87°
2026-04-25 18:31 54.06397 -27.36388 33094 ft 523 kts 87°
2026-04-25 18:32 54.06633 -27.24015 33092 ft 522 kts 88°
2026-04-25 18:32 54.06859 -27.11656 33092 ft 522 kts 88°
2026-04-25 18:33 54.07070 -26.99323 33094 ft 521 kts 88°
2026-04-25 18:33 54.07265 -26.86986 33102 ft 522 kts 88°
2026-04-25 18:34 54.07450 -26.74701 33098 ft 522 kts 88°
2026-04-25 18:34 54.07623 -26.62318 33103 ft 523 kts 88°
2026-04-25 18:35 54.07786 -26.49912 33103 ft 524 kts 89°
2026-04-25 18:35 54.07934 -26.37470 33101 ft 526 kts 89°
2026-04-25 18:36 54.08069 -26.25014 33103 ft 527 kts 89°
2026-04-25 18:36 54.08191 -26.12533 33098 ft 527 kts 89°
2026-04-25 18:37 54.08301 -26.00041 33151 ft 530 kts 89°
2026-04-25 18:37 54.08353 -25.93749 33436 ft 530 kts 89°
2026-04-25 18:37 54.08402 -25.87486 33860 ft 528 kts 89°
2026-04-25 18:38 54.08448 -25.81254 34317 ft 524 kts 89°
2026-04-25 18:38 54.08492 -25.75075 34764 ft 520 kts 90°
2026-04-25 18:38 54.08530 -25.68925 35123 ft 519 kts 90°
2026-04-25 18:38 54.08564 -25.62841 35104 ft 519 kts 90°
2026-04-25 18:39 54.08620 -25.50583 35117 ft 517 kts 90°
2026-04-25 18:39 54.08663 -25.38330 35124 ft 515 kts 90°
2026-04-25 18:40 54.08695 -25.26109 35124 ft 514 kts 90°
2026-04-25 18:40 54.08716 -25.13933 35131 ft 515 kts 91°
2026-04-25 18:41 54.08726 -25.01798 35132 ft 515 kts 91°
2026-04-25 18:41 54.08721 -24.89615 35131 ft 514 kts 91°
2026-04-25 18:42 54.08708 -24.79486 35125 ft 514 kts 91°
2026-04-25 18:42 54.08675 -24.65223 35127 ft 515 kts 92°
2026-04-25 18:43 54.08634 -24.53002 35135 ft 516 kts 92°
2026-04-25 18:43 54.08579 -24.40835 35123 ft 517 kts 92°
2026-04-25 18:44 54.08544 -24.34142 35129 ft 517 kts 92°
2026-04-25 18:44 54.08469 -24.21892 35130 ft 517 kts 92°
2026-04-25 18:45 54.08383 -24.09639 35130 ft 517 kts 92°
2026-04-25 18:45 54.08268 -23.97361 35131 ft 518 kts 93°
2026-04-25 18:46 54.08159 -23.85097 35130 ft 518 kts 93°
2026-04-25 18:46 54.08043 -23.72905 35125 ft 517 kts 93°
2026-04-25 18:47 54.07911 -23.60659 35131 ft 517 kts 93°
2026-04-25 18:47 54.07764 -23.48416 35132 ft 517 kts 93°
2026-04-25 18:48 54.07604 -23.36171 35128 ft 516 kts 94°
2026-04-25 18:48 54.07431 -23.23970 35129 ft 515 kts 94°
2026-04-25 18:49 54.07248 -23.11779 35130 ft 515 kts 94°
2026-04-25 18:49 54.07050 -22.99675 35131 ft 514 kts 94°
2026-04-25 18:50 54.06839 -22.87515 35130 ft 514 kts 94°
2026-04-25 18:50 54.06620 -22.75353 35138 ft 514 kts 94°
2026-04-25 18:51 54.06428 -22.65222 35141 ft 515 kts 95°
2026-04-25 18:51 54.06140 -22.50958 35138 ft 515 kts 95°
2026-04-25 18:52 54.05880 -22.38757 35149 ft 516 kts 95°
2026-04-25 18:52 54.05611 -22.26559 35148 ft 516 kts 95°
2026-04-25 18:53 54.05331 -22.14409 35148 ft 516 kts 95°
2026-04-25 18:53 54.05033 -22.02184 35148 ft 516 kts 95°
2026-04-25 18:54 54.04566 -21.83861 35147 ft 516 kts 95°
2026-04-25 18:55 54.04238 -21.71668 35148 ft 516 kts 95°
2026-04-25 18:55 54.03901 -21.59473 35148 ft 516 kts 96°
2026-04-25 18:56 54.03550 -21.47278 35148 ft 515 kts 96°
2026-04-25 18:56 54.03191 -21.35231 35141 ft 513 kts 96°
2026-04-25 18:57 54.02815 -21.23108 35149 ft 512 kts 96°
2026-04-25 18:57 54.02431 -21.11015 35140 ft 511 kts 96°
2026-04-25 18:58 54.02036 -20.98949 35147 ft 511 kts 96°
2026-04-25 18:58 54.01421 -20.80956 35147 ft 509 kts 96°
2026-04-25 18:59 54.00761 -20.62366 35159 ft 508 kts 96°
2026-04-25 19:00 54.00093 -20.44397 35157 ft 507 kts 97°
2026-04-25 19:01 53.99396 -20.26427 35156 ft 508 kts 97°
2026-04-25 19:01 53.98924 -20.14529 35157 ft 508 kts 97°
2026-04-25 19:02 53.98215 -19.96582 35156 ft 508 kts 94°
2026-04-25 19:03 53.98429 -19.82507 35165 ft 511 kts 89°
2026-04-25 19:03 53.98940 -19.66465 35158 ft 511 kts 90°
2026-04-25 19:04 53.99309 -19.48372 35159 ft 510 kts 91°
2026-04-25 19:05 53.99663 -19.24338 35156 ft 508 kts 91°
2026-04-25 19:06 53.99830 -19.12331 35158 ft 507 kts 91°
2026-04-25 19:06 54.00062 -18.94340 35156 ft 507 kts 92°
2026-04-25 19:07 54.00259 -18.76356 35165 ft 506 kts 92°
2026-04-25 19:08 54.00433 -18.58487 35166 ft 506 kts 92°
2026-04-25 19:09 54.00599 -18.38524 35167 ft 506 kts 92°
2026-04-25 19:10 54.00739 -18.16642 35167 ft 505 kts 92°
2026-04-25 19:10 54.00800 -18.04711 35165 ft 505 kts 93°
2026-04-25 19:11 54.00841 -17.94778 35167 ft 505 kts 93°
2026-04-25 19:11 54.00884 -17.80874 35165 ft 505 kts 93°
2026-04-25 19:12 54.00908 -17.70935 35167 ft 505 kts 93°
2026-04-25 19:12 54.00922 -17.58996 35165 ft 505 kts 93°
2026-04-25 19:13 54.00925 -17.47064 35167 ft 505 kts 93°
2026-04-25 19:13 54.00916 -17.35108 35167 ft 505 kts 94°
2026-04-25 19:14 54.00893 -17.23174 35166 ft 505 kts 94°
2026-04-25 19:14 54.00875 -17.16673 35168 ft 505 kts 94°
2026-04-25 19:15 54.00836 -17.04725 35166 ft 506 kts 94°
2026-04-25 19:15 54.00788 -16.92765 35166 ft 505 kts 94°
2026-04-25 19:16 54.00725 -16.80816 35163 ft 505 kts 94°
2026-04-25 19:16 54.00651 -16.68877 35168 ft 505 kts 94°
2026-04-25 19:17 54.00561 -16.56917 35166 ft 506 kts 94°
2026-04-25 19:17 54.00465 -16.45015 35166 ft 507 kts 94°